CAPE
0 0 0 0 0 0 0 0 0 0 0 0 0 0 0 0 0 0 0 0 0 0 0 0 12 216 222 194 168 212 179 141 65 2 0 0 0 0 0 0 0 0 0
0 0 0 0 0 0 0 0 0 0 0 0 0 0 0 0 0 0 0 0 0 0 0 0 0 63 256 258 224 240 185 132 51 14 0 0 0 0 0 0 0 0 0
0 0 0 0 0 0 0 0 0 0 0 0 0 0 0 0 0 0 0 0 0 0 0 0 0 54 135 242 234 229 212 149 79 1 0 0 0 0 0 0 0 0 0
0 0 0 0 0 0 0 0 0 0 0 0 0 0 0 0 0 0 0 0 0 0 0 0 0 0 83 180 274 325 210 119 73 18 0 0 0 0 0 0 0 0 0
0 0 0 0 0 0 0 0 0 0 0 0 0 0 0 0 0 0 0 0 0 0 0 0 0 0 0 105 209 222 223 146 91 8 7 0 0 0 0 0 0 0 0
0 3 1 0 0 0 0 1 2 0 0 0 0 0 0 0 0 0 0 0 0 0 1 0 0 0 1 0 49 168 198 228 127 41 9 5 0 0 0 0 0 0 0
1 2 1 1 1 1 0 0 9 0 0 0 0 0 0 0 0 0 0 0 0 3 18 6 0 0 0 0 12 79 243 231 129 54 15 3 0 0 0 0 0 0 0
0 1 0 0 0 0 0 0 0 0 0 0 0 0 0 0 0 0 0 0 0 0 12 40 0 18 0 0 0 54 85 153 146 80 74 11 0 0 1 0 0 0 0
0 0 0 0 1 2 1 0 1 2 0 0 0 0 0 0 0 0 0 4 26 18 28 56 60 32 49 0 0 5 0 75 109 131 99 36 4 2 7 2 0 0 0
0 0 0 1 1 1 1 1 1 2 2 0 0 0 0 0 0 1 4 15 45 79 121 88 67 57 50 59 38 29 68 70 74 112 74 72 13 2 1 0 0 0 0
0 0 0 0 0 0 1 1 2 2 2 2 0 0 0 0 0 10 69 108 128 216 138 129 121 87 66 37 28 48 62 64 84 103 61 16 5 6 3 0 0 0 0
0 0 0 0 0 0 0 1 2 3 2 3 0 0 0 0 0 12 73 107 132 244 217 190 139 124 101 67 27 21 31 49 58 45 16 11 34 7 8 0 1 0 0
0 0 0 0 0 0 0 0 0 2 2 1 3 0 0 0 0 0 22 52 53 79 109 121 100 63 75 84 50 28 0 13 29 51 0 0 0 0 0 0 2 2 4
0 0 0 0 0 0 0 0 0 0 1 3 2 3 2 2 0 7 11 44 47 53 126 129 111 157 116 58 37 32 28 5 4 39 47 0 0 0 0 0 1 1 2
0 0 0 0 0 0 0 0 0 0 0 1 3 3 3 2 0 2 16 19 47 78 120 85 102 115 90 51 26 42 21 1 0 15 23 35 18 7 0 0 1 6 11
0 0 0 0 0 0 0 0 0 0 0 1 2 3 2 2 0 0 3 27 25 36 27 12 8 42 46 59 45 31 23 19 19 17 6 27 37 4 0 0 7 11 6
0 0 0 0 0 0 0 0 0 0 0 1 2 2 2 2 3 0 0 0 0 0 0 0 0 0 0 0 0 0 14 17 25 17 19 20 21 10 7 0 0 2 1
0 0 0 0 0 0 0 0 0 0 0 0 0 0 2 2 2 3 5 7 6 6 7 6 6 5 5 1 0 0 0 9 0 1 0 0 1 2 0 1 0 1 2
0 0 0 0 0 0 0 0 0 0 0 0 0 0 0 1 0 2 4 3 3 4 4 3 3 5 3 3 0 0 0 1 4 4 5 4 4 4 1 0 0 0 0
0 0 0 0 0 0 0 0 0 0 0 0 0 0 0 0 0 0 1 2 2 0 0 0 0 1 2 2 3 2 4 4 5 4 3 3 2 2 2 0 0 0 0
0 0 0 0 0 0 0 0 0 0 0 0 0 0 0 0 0 0 0 0 0 0 0 0 0 0 0 1 1 0 0 0 0 1 0 0 0 0 0 0 0 0 0
0 0 0 0 0 0 0 0 0 0 0 0 0 0 0 0 0 0 0 0 0 0 0 0 0 0 0 0 0 0 0 0 0 0 0 0 0 0 0 0 0 0 0
0 0 0 0 0 0 0 0 0 0 0 0 0 0 0 0 0 0 0 0 0 0 0 0 0 0 0 0 0 0 0 0 0 0 0 0 0 0 0 0 0 0 0
0 0 0 0 0 0 0 0 0 0 0 0 0 0 0 0 0 0 0 0 0 0 0 0 0 0 0 0 0 0 0 0 0 0 0 0 0 0 0 0 0 0 0
0 0 0 0 0 0 0 0 0 0 0 0 0 0 0 0 0 0 0 0 0 0 0 0 0 0 0 0 0 0 0 0 0 0 0 0 0 0 0 0 0 0 0
0 0 0 0 0 0 0 0 0 0 0 0 0 0 0 0 0 0 0 0 0 0 0 0 0 0 1 1 0 0 0 0 0 0 0 0 1 1 0 0 1 0 0
CIN
-0 -0 -0 -0 -0 -0 -0 -0 -0 -0 -0 -0 -0 -0 -0 -0 -0 -0 -0 -0 -0 -0 -0 -0 -8 -4 -7 -11 -14 -10 -2 -10 -30 -37 -0 -0 -0 -0 -0 -0 -0 -0 -0
-0 -0 -0 -0 -0 -0 -0 -0 -0 -0 -0 -0 -0 -0 -0 -0 -0 -0 -0 -0 -0 -0 -0 -0 -0 -20 -5 -8 -10 -11 -7 -3 -19 -24 -14 -0 -0 -0 -0 -0 -0 -0 -0
-0 -0 -0 -0 -0 -0 -0 -0 -0 -0 -0 -0 -0 -0 -0 -0 -0 -0 -0 -0 -0 -0 -0 -0 -0 -13 -8 -1 -11 -9 -11 -1 -9 -21 -0 -0 -0 -0 -0 -0 -0 -0 -0
-0 -0 -0 -0 -0 -0 -0 -0 -0 -0 -1 -0 -0 -0 -0 -0 -0 -0 -0 -0 -0 -0 -0 -0 -0 -0 -17 -5 -2 -1 -4 -7 -5 -22 -2 -0 -0 -0 -0 -0 -0 -0 -0
-0 -0 -0 -0 -0 -0 -0 -0 -0 -0 -0 -0 -0 -0 -0 -0 -0 -0 -0 -0 -0 -0 -0 -0 -0 -0 -0 -11 -2 -4 -10 -4 -2 -11 -53 -27 -0 -0 -0 -0 -0 -0 -0
-0 -0 -0 -0 -0 -0 -0 -49 -5 -0 -0 -0 -0 -0 -0 -0 -0 -0 -0 -0 -0 -0 -1 -0 -0 -0 -2 -0 -16 -6 -2 -0 -0 -1 -1 -13 -0 -0 -0 -0 -0 -0 -0
-0 -0 -0 -0 -0 -0 -0 -0 -7 -2 -0 -0 -0 -0 -0 -0 -0 -0 -0 -0 -0 -3 -3 -2 -0 -0 -0 -0 -9 -10 -0 -0 -0 -7 -23 -12 -0 -0 -0 -0 -0 -0 -0
-0 -0 -0 -0 -0 -0 -0 -0 -0 -5 -0 -0 -0 -0 -0 -0 -0 -0 -0 -0 -0 -0 -3 -6 -0 -4 -0 -0 -0 -8 -7 -3 -1 -2 -5 -13 -0 -0 -14 -0 -0 -0 -0
-0 -0 -0 -0 -0 -0 -0 -0 -0 -0 -0 -0 -0 -0 -0 -0 -0 -0 -0 -2 -2 -2 -3 -4 -6 -5 -4 -0 -0 -0 -0 -4 -7 -0 -2 -5 -12 -19 -28 -22 -0 -0 -0
-0 -0 -0 -0 -0 -0 -0 -0 -0 -0 -0 -0 -0 -0 -0 -0 -0 -5 -3 -5 -6 -3 -2 -7 -14 -4 -4 -4 -4 -6 -4 -7 -9 -5 -2 -0 -2 -3 -7 -4 -0 -0 -0
-0 -0 -0 -0 -0 -0 -0 -0 -0 -0 -0 -0 -10 -10 -0 -0 -0 -46 -26 -6 -4 -4 -3 -4 -8 -5 -5 -4 -3 -6 -6 -6 -9 -6 -4 -5 -10 -9 -13 -0 -0 -0 -0
-0 -0 -0 -0 -0 -0 -0 -0 -0 -0 -0 -0 -0 -0 -0 -0 -0 -47 -17 -5 -5 -3 -5 -5 -6 -6 -7 -5 -4 -5 -5 -4 -3 -1 -4 -6 -4 -19 -7 -1 -0 -0 -0
-0 -0 -0 -0 -0 -0 -0 -0 -0 -0 -0 -0 -0 -0 -0 -36 -3 -1 -7 -5 -7 -7 -8 -9 -16 -10 -6 -12 -8 -6 -0 -12 -14 -3 -0 -0 -0 -0 -0 -0 -3 -0 -5
-0 -0 -0 -0 -0 -0 -0 -0 -0 -0 -0 -0 -0 -0 -0 -0 -10 -31 -3 -4 -7 -9 -5 -27 -30 -14 -6 -4 -5 -5 -4 -5 -3 -4 -10 -0 -0 -0 -0 -0 -0 -38 -8
-0 -0 -0 -0 -0 -0 -0 -0 -0 -0 -0 -0 -0 -0 -0 -0 -0 -54 -19 -5 -3 -12 -21 -28 -15 -20 -16 -11 -17 -20 -18 -3 -0 -9 -14 -25 -53 -71 -0 -0 -1 -0 -0
-0 -0 -0 -0 -0 -0 -0 -0 -0 -0 -0 -0 -0 -0 -0 -0 -0 -0 -51 -22 -15 -18 -34 -45 -41 -18 -9 -11 -10 -22 -22 -8 -7 -9 -12 -7 -21 -7 -0 -0 -16 -22 -10
-0 -0 -0 -0 -0 -0 -0 -0 -0 -0 -0 -0 -0 -0 -0 -0 -0 -0 -0 -0 -0 -0 -0 -0 -0 -0 -0 -0 -0 -0 -8 -8 -8 -11 -16 -10 -10 -10 -15 -0 -0 -15 -10
-0 -0 -0 -0 -0 -0 -0 -0 -0 -0 -0 -0 -0 -0 -0 -0 -0 -0 -0 -0 -0 -0 -0 -0 -0 -0 -0 -0 -0 -0 -1 -4 -0 -0 -0 -0 -0 -0 -0 -10 -0 -2 -13
-0 -0 -0 -0 -0 -0 -0 -0 -0 -0 -0 -0 -0 -0 -0 -0 -0 -0 -0 -0 -0 -0 -0 -0 -0 -0 -0 -0 -0 -0 -0 -0 -0 -0 -0 -0 -0 -0 -0 -0 -0 -0 -0
-0 -0 -0 -0 -0 -0 -0 -0 -0 -0 -0 -0 -0 -0 -0 -0 -0 -0 -0 -0 -0 -0 -0 -0 -0 -0 -0 -0 -0 -0 -0 -0 -0 -0 -0 -0 -0 -0 -0 -0 -0 -0 -0
-0 -0 -0 -0 -0 -0 -0 -0 -0 -0 -0 -0 -0 -0 -0 -0 -0 -0 -0 -0 -0 -0 -0 -0 -0 -0 -0 -0 -0 -0 -0 -0 -0 -0 -0 -0 -0 -0 -0 -0 -0 -0 -0
-0 -0 -0 -0 -0 -0 -0 -0 -0 -0 -0 -0 -0 -0 -0 -0 -0 -0 -0 -0 -0 -0 -0 -0 -0 -0 -0 -0 -0 -0 -0 -0 -0 -0 -0 -0 -0 -0 -0 -0 -0 -0 -0
-0 -0 -0 -0 -0 -0 -0 -0 -0 -0 -0 -0 -0 -0 -0 -0 -0 -0 -0 -0 -0 -0 -0 -0 -0 -0 -0 -0 -0 -0 -0 -0 -0 -0 -0 -0 -0 -0 -0 -0 -0 -0 -0
-0 -0 -0 -0 -0 -0 -0 -0 -0 -0 -0 -0 -0 -0 -0 -0 -0 -0 -0 -0 -0 -0 -0 -0 -0 -0 -0 -0 -0 -0 -0 -0 -0 -0 -0 -0 -0 -0 -0 -0 -0 -0 -0
-0 -0 -0 -0 -0 -0 -0 -0 -0 -0 -0 -0 -0 -0 -0 -0 -0 -0 -0 -0 -0 -0 -0 -0 -0 -0 -0 -0 -0 -0 -0 -0 -0 -0 -0 -0 -0 -0 -0 -0 -0 -0 -0
-0 -0 -0 -0 -0 -0 -0 -0 -0 -0 -0 -0 -0 -0 -0 -0 -0 -0 -0 -0 -0 -0 -0 -0 -0 -0 -0 -0 -0 -0 -0 -0 -0 -0 -0 -0 -0 -0 -0 -0 -0 -0 -0
Wind_Speed
38 41 42 43 44 44 42 42 42 41 40 42 43 45 47 45 45 44 44 43 42 41 40 39 38 35 36 34 31 30 27 27 25 27 27 26 23 19 19 16 13 12 12
44 46 47 48 49 50 50 50 49 46 42 41 41 42 43 44 44 44 44 45 44 42 43 42 40 40 38 37 35 33 33 32 28 28 28 29 30 26 22 19 17 14 16
50 49 50 51 51 51 51 50 49 46 42 40 41 43 44 46 47 46 45 44 44 46 44 43 43 41 41 42 40 38 36 35 33 30 29 29 31 32 30 23 20 18 15
47 48 48 49 48 47 46 45 43 40 36 35 37 41 45 48 48 48 47 45 45 46 46 44 44 44 42 43 43 41 40 38 38 34 35 30 28 30 31 31 25 22 18
44 44 45 46 47 48 46 39 32 33 33 31 31 33 36 40 43 44 45 46 45 44 45 46 44 45 45 42 42 41 40 39 38 36 36 40 35 34 34 34 29 27 23
42 41 42 43 44 43 42 33 23 21 28 28 28 28 31 36 38 39 41 43 43 44 44 44 45 44 44 45 43 41 41 42 43 42 41 39 38 35 34 35 33 29 27
39 40 41 42 42 42 41 39 33 25 22 24 24 26 23 35 39 41 41 41 41 41 42 42 43 44 44 44 43 43 39 41 43 41 41 37 38 36 37 37 37 36 30
39 38 38 40 42 43 43 42 42 34 24 25 27 28 29 30 38 41 41 42 40 39 38 39 41 41 41 40 42 43 43 39 41 41 41 41 38 37 38 36 36 38 35
34 36 40 39 42 44 44 44 42 40 27 25 25 29 22 27 35 39 41 44 42 39 37 37 38 39 39 40 39 40 44 42 41 42 41 40 38 36 36 38 37 37 41
13 21 32 38 40 44 44 41 39 40 37 27 22 27 20 21 27 32 36 40 41 37 35 35 36 36 37 36 36 38 39 40 40 40 40 41 40 38 35 35 37 36 39
15 19 19 31 39 44 45 43 40 38 38 32 33 28 11 16 17 18 22 30 34 36 34 30 32 35 35 34 34 34 36 38 38 37 39 42 41 41 39 35 35 37 36
11 15 21 23 16 34 41 41 43 41 39 33 32 36 12 7 5 5 20 39 41 35 36 34 30 33 34 33 34 34 34 36 37 38 40 41 38 36 36 33 34 34 35
18 21 31 35 35 35 38 33 36 36 29 23 29 31 27 7 8 15 25 30 36 40 42 36 33 37 37 33 33 33 33 36 38 37 38 38 37 39 38 38 37 35 34
21 26 28 28 31 34 35 33 31 34 34 22 11 8 15 2 11 16 21 27 32 37 37 36 39 39 36 32 32 32 33 35 37 36 35 35 34 35 35 36 37 39 40
21 22 26 28 26 34 31 27 29 23 22 18 13 3 6 8 13 17 21 25 28 32 36 38 39 39 36 33 32 32 35 35 35 34 33 33 34 34 33 34 35 35 38
18 20 19 24 19 14 12 15 19 19 22 20 18 7 4 9 16 18 19 20 25 27 28 29 30 33 35 36 35 34 34 34 36 39 40 35 33 34 32 32 33 33 36
19 20 23 19 8 12 16 17 22 19 20 27 19 11 7 9 12 16 17 18 18 17 19 21 24 27 31 35 38 36 32 33 33 33 34 36 35 36 35 32 29 31 30
21 22 23 3 5 6 8 11 19 21 23 22 18 18 10 9 7 20 14 15 16 16 16 19 22 24 28 33 40 33 27 24 23 24 25 26 28 29 31 30 30 30 27
18 20 20 10 5 7 4 8 13 18 21 23 24 24 16 11 13 5 6 3 4 15 13 17 20 21 23 26 26 9 15 11 13 14 16 18 18 22 21 20 17 18 20
17 18 13 25 16 12 5 11 12 12 18 20 19 18 25 27 5 6 9 12 17 2 1 4 4 8 10 12 6 5 8 8 14 19 12 13 16 15 16 15 16 16 21
15 19 25 24 26 24 14 14 17 19 15 18 19 18 17 20 22 21 16 12 13 11 14 15 14 10 6 4 4 10 17 22 20 18 16 14 13 15 15 17 17 18 22
14 20 26 26 26 26 26 22 21 16 17 21 23 24 24 23 19 22 17 8 12 8 8 8 6 4 4 4 5 5 4 9 8 10 13 14 15 16 19 20 21 23 25
10 15 22 26 25 26 26 26 23 23 21 24 25 26 27 29 27 28 23 21 21 17 13 11 11 10 10 10 12 13 13 14 14 14 15 16 18 19 20 23 24 25 27
10 13 17 23 24 22 24 25 26 24 23 24 25 25 26 26 27 26 26 24 22 21 19 18 18 17 17 17 17 17 17 17 17 17 18 18 19 21 22 25 27 28 29
11 12 15 19 21 21 21 21 22 23 24 23 23 24 24 25 24 25 25 24 24 22 22 21 21 21 20 21 20 20 20 19 18 17 19 20 22 24 25 26 28 29 30
15 14 15 17 19 19 19 19 20 21 21 22 23 23 23 24 24 22 23 23 23 23 23 23 22 21 22 22 21 21 21 20 20 19 21 22 23 24 25 26 27 29 30
Wind_Direction
311 310 308 307 306 305 302 298 295 292 289 286 283 280 277 276 273 271 268 268 265 263 263 262 263 262 262 263 261 263 263 264 265 270 272 275 276 274 275 277 282 279 277
311 309 307 306 304 302 300 299 296 294 289 284 283 282 280 277 275 272 269 266 265 263 260 261 259 259 261 261 260 259 262 264 263 263 269 274 273 273 271 276 275 274 280
310 310 308 307 307 304 303 300 297 295 291 285 282 281 279 276 275 273 271 267 264 262 261 259 260 258 258 259 258 258 258 261 262 259 266 274 273 274 272 269 271 272 270
314 313 312 312 311 309 307 304 299 298 297 291 284 280 278 275 273 272 271 270 266 263 260 259 257 258 257 258 258 257 257 257 260 262 260 268 279 275 276 271 270 272 267
321 320 316 305 300 300 305 308 307 303 300 294 288 285 283 280 277 274 271 268 267 264 261 258 257 256 256 258 257 255 254 255 259 259 258 263 267 272 279 275 274 272 268
314 306 311 314 315 312 313 318 316 309 307 300 293 287 284 283 281 278 273 270 268 265 262 259 257 255 256 255 257 256 256 255 257 259 259 259 262 264 271 275 279 275 275
324 324 321 320 318 319 319 320 318 318 314 304 296 290 278 284 280 278 275 272 269 265 262 258 257 255 255 255 256 256 257 256 255 256 259 260 263 267 266 271 275 278 277
339 339 337 339 334 326 321 320 316 322 323 316 307 296 290 288 284 280 276 273 268 265 263 260 257 256 254 254 255 256 256 258 257 257 258 261 262 265 266 267 273 277 276
330 334 345 360 354 346 333 319 313 318 326 323 316 308 301 293 288 284 277 271 267 262 261 260 258 254 253 253 254 255 256 257 257 258 258 260 263 265 267 269 272 271 276
25 29 16 10 6 3 1 343 325 315 323 328 324 314 313 304 296 289 281 270 263 259 257 257 255 253 252 252 253 255 256 256 257 258 259 261 265 266 267 268 271 271 273
23 23 24 20 12 3 8 5 345 332 328 331 328 317 308 315 307 296 286 272 261 257 254 255 254 251 251 251 253 255 257 257 258 259 260 260 264 266 268 269 271 269 272
15 26 26 24 14 21 16 19 12 348 342 335 329 319 324 317 290 254 207 230 233 251 251 250 252 250 250 253 254 256 258 259 260 261 262 262 263 263 267 269 271 271 273
28 27 17 13 15 17 15 25 24 21 21 10 335 326 340 19 198 199 206 206 214 225 234 243 249 248 250 256 257 258 259 261 263 262 263 264 264 263 265 266 272 273 273
22 17 18 18 16 17 16 21 22 21 19 16 4 238 360 75 199 204 194 194 201 212 228 240 242 245 252 257 259 259 261 263 264 265 264 265 264 266 267 267 270 271 273
18 18 16 18 22 18 21 25 27 25 25 6 29 170 210 195 197 195 205 193 194 203 218 229 234 243 252 259 261 263 264 266 267 267 268 268 267 267 269 270 273 272 273
19 20 23 25 30 24 356 21 31 31 35 30 43 56 151 205 203 189 190 214 218 233 243 249 254 256 256 259 261 263 264 266 267 265 268 270 271 270 269 269 271 273 275
17 20 23 34 12 29 32 34 39 41 45 47 48 54 81 122 149 153 162 201 242 274 276 276 274 271 269 265 261 265 269 271 271 270 269 272 276 274 273 272 271 273 272
13 16 21 332 333 12 26 39 47 47 50 54 51 54 74 101 131 112 161 183 250 285 278 290 285 283 275 269 251 239 273 275 276 278 280 284 285 285 281 280 280 279 278
18 18 25 271 286 301 349 47 53 54 55 56 58 63 63 80 103 122 159 219 233 340 94 330 314 301 292 293 273 236 184 278 281 293 297 297 299 297 298 297 290 300 294
19 21 303 308 289 289 295 64 62 61 59 60 65 71 69 77 48 110 129 129 115 98 320 303 298 328 312 334 328 252 261 255 259 220 278 290 251 278 271 300 295 307 303
16 8 301 302 325 325 49 60 59 57 63 63 67 74 81 81 79 89 107 125 131 24 127 122 121 127 116 38 111 160 168 164 176 192 201 233 288 300 311 323 320 320 317
13 353 302 308 333 347 5 32 41 58 58 54 55 58 63 67 81 73 91 22 125 155 162 167 182 227 234 301 316 310 265 229 297 318 313 322 326 332 334 334 331 327 326
14 3 345 326 332 342 348 3 21 30 40 38 42 40 39 31 38 20 355 347 350 331 305 284 287 287 291 294 309 317 320 322 337 338 340 340 337 339 340 338 336 334 332
2 0 351 338 338 348 351 353 354 7 19 22 25 30 26 27 18 23 21 2 350 344 333 328 322 317 316 317 316 319 322 325 340 344 347 350 352 349 345 340 337 337 336
351 351 345 340 339 345 349 355 358 359 1 7 12 14 16 14 19 15 13 11 2 352 347 341 340 338 334 331 332 336 337 339 345 351 350 347 346 346 346 345 344 344 344
338 337 337 335 336 339 343 349 353 355 357 359 358 359 2 2 360 7 6 7 6 359 354 351 350 345 345 340 342 350 350 350 351 353 351 352 355 355 355 352 349 348 347